User: anonymous   Login
Location: Unspecified
(0.0000°N, 0.0000°E)
Time: 08:43:34
(UTC+02:00)
Language:

Ariane H10 - Orbit

View from above orbital plane
View from above orbital plane
View from above satellite
View from above satellite

Ground track
Ground track

The orbit data is extracted from the following two-line orbital elements,

1 19622U 88098B   16271.80843794  .00005411  00000-0  12596-2 0  9999
2 19622   3.8864 337.3088 6414571 266.9354  23.2698  3.43470763295278
Epoch (UTC): 27 September 2016 19:24:09
Eccentricity: 0.6414571
inclination: 3.8864°
perigee height: 275 km
apogee height: 24080 km
right ascension of ascending node: 337.3088°
argument of perigee: 266.9354°
revolutions per day: 3.43470763
mean anomaly at epoch: 23.2698°
orbit number at epoch: 29527

The dashed part of the orbit path shows where the satellite is in the earth's shadow,  

DLR